Regional Weather Roundup
Issued by NWS

Home | Current Version | Previous Version | Text Only | Print | Product List | Glossary On
Versions: 1 2 3 4 5 6 7 8 9 10 11 12 13 14 15 16 17 18 19 20 21 22 23 24 25 26 27 28 29 30 31 32 33 34 35 36 37 38 39 40 41 42 43 44 45 46 47 48 49 50
000
ASUS43 KOAX 080502
RWRNE

WEATHER ROUNDUP FOR NEBRASKA
NATIONAL WEATHER SERVICE OMAHA NE
1200 AM CDT WED JUL 08 2015

NOTES: SATELLITE DATA IS BEING USED TO AUGMENT CLOUD COVER ABOVE
       12000 FEET.
       "FAIR" INDICATES FEW OR NO CLOUDS BELOW 12,000 FEET WITH NO
       SIGNIFICANT WEATHER AND/OR OBSTRUCTIONS TO VISIBILITY.

  * THESE STATIONS DO NOT REPORT WEATHER SUCH AS RAIN...SNOW OR FOG.

NEZ001>004-019>022-054>056-080600-
NEBRASKA PANHANDLE

CITY           SKY/WX    TMP DP  RH WIND       PRES   REMARKS
SCOTTSBLUFF    CLOUDY    64  52  64 E8        30.08S
ALLIANCE       CLOUDY    63  51  65 S12       30.08F
CHADRON        MOCLDY    66  51  58 S9        30.03F
KIMBALL          N/A    N/A N/A N/A MISG        N/A
SIDNEY         MOCLDY    58  49  72 SE9       30.11F
$$

NEZ057>060-069>072-079>082-080600-
SOUTHWEST NEBRASKA

CITY           SKY/WX    TMP DP  RH WIND       PRES   REMARKS
NORTH PLATTE   MOCLDY    62  54  74 SE8       30.10F
IMPERIAL       CLOUDY    65  49  56 SE13      30.10S
LEXINGTON      PTCLDY    60  55  82 SE5       30.11F
MCCOOK         CLOUDY    62  52  69 SE6       30.10F
$$

NEZ005>010-023>029-035>040-094-080600-
NORTH CENTRAL NEBRASKA

CITY           SKY/WX    TMP DP  RH WIND       PRES   REMARKS
VALENTINE      PTCLDY    61  54  77 SE10      30.08S
BROKEN BOW     MOCLDY    59  54  83 SE3       30.11S
ORD            PTCLDY    57  51  80 CALM      30.10F
$$

NEZ041-046>049-061>064-073>077-083>087-080600-
SOUTH CENTRAL NEBRASKA

CITY           SKY/WX    TMP DP  RH WIND       PRES   REMARKS
GRAND ISLAND   PTCLDY    58  52  80 E3        30.12F
AURORA         PTCLDY    57  54  91 E5        30.11F
HASTINGS       PTCLDY    58  51  78 E3        30.11F
KEARNEY *      PTCLDY    57  52  82 SE6       30.11F
$$

NEZ011>018-030>034-042>045-080600-
NORTHEAST NEBRASKA

CITY           SKY/WX    TMP DP  RH WIND       PRES   REMARKS
NORFOLK        CLEAR     55  52  89 CALM      30.11F
BLAIR          CLEAR     58  51  78 NE5       30.11S
FREMONT        PTCLDY    62  52  70 CALM      30.11F
TEKAMAH        PTCLDY    55  51  86 CALM      30.10S
$$

NEZ050>053-065>068-078-088>093-080600-
SOUTHEAST NEBRASKA

CITY           SKY/WX    TMP DP  RH WIND       PRES   REMARKS
LINCOLN        CLEAR     58  53  84 N3        30.10F
OMAHA EPPLEY   CLEAR     60  54  80 NW5       30.10S
FALLS CITY     MOCLDY    63  57  81 NE3       30.08S
PLATTSMOUTH    CLEAR     59  51  73 NE5       30.10S
$$

NEZ044-045-051>053-067-080600-
OMAHA AREA

CITY           SKY/WX    TMP DP  RH WIND       PRES   REMARKS
OMAHA EPPLEY   CLEAR     60  54  80 NW5       30.10S
BLAIR          CLEAR     58  51  78 NE5       30.11S
FREMONT        PTCLDY    62  52  70 CALM      30.11F
MILLARD        CLEAR     59  55  85 CALM      30.10S
OFFUTT AFB     CLEAR     56  53  86 NE6       30.09S
PLATTSMOUTH    CLEAR     59  51  73 NE5       30.10S
$$


USA.gov is the U.S. government's official web portal to all federal, state and local government web resources and services.